| time (UTC) | temp F | wind direction | speed MPH | gust MPH | rain 1hr in | rain 24hr in | rain mn in | humidity % | barometer mb |
| 20260508073056 | 44 | 225 | 3.0 | 7.0 | 0.00 | 0.00 | 0.00 | 44 | 1008.2 |
| 20260508071553 | 44 | 205 | 3.0 | 8.0 | 0.00 | 0.00 | 0.00 | 44 | 1008.2 |
| 20260508070049 | 44 | 207 | 1.0 | 4.0 | 0.00 | 0.00 | 0.00 | 44 | 1008.4 |
| 20260508064548 | 45 | 229 | 2.0 | 6.0 | 0.00 | 0.00 | 0.00 | 43 | 1008.4 |
| 20260508063047 | 45 | 227 | 4.0 | 8.0 | 0.00 | 0.00 | 0.00 | 43 | 1008.5 |
| 20260508061546 | 44 | 276 | 1.0 | 4.0 | 0.00 | 0.00 | 0.00 | 44 | 1008.6 |
| 20260508060015 | 44 | 196 | 2.0 | 6.0 | 0.00 | 0.00 | 0.00 | 45 | 1008.6 |
| 20260508054514 | 44 | 160 | 1.0 | 3.0 | 0.00 | 0.00 | 0.00 | 45 | 1008.7 |
| 20260508053013 | 45 | 115 | 1.0 | 3.0 | 0.00 | 0.00 | 0.00 | 44 | 1008.8 |
| 20260508051523 | 46 | 177 | 0.0 | 2.0 | 0.00 | 0.00 | 0.00 | 45 | 1008.9 |
| 20260508050010 | 44 | 153 | 0.0 | 2.0 | 0.00 | 0.00 | 0.00 | 49 | 1009.0 |
| 20260508044511 | 43 | 202 | 0.0 | 1.0 | 0.00 | 0.00 | 0.00 | 51 | 1009.1 |
| 20260508043017 | 45 | 202 | 0.0 | 1.0 | 0.00 | 0.00 | 0.00 | 51 | 1009.2 |
| 20260508041509 | 43 | 202 | 0.0 | 2.0 | 0.00 | 0.00 | 0.00 | 54 | 1009.2 |
| 20260508040006 | 42 | 238 | 0.0 | 2.0 | 0.00 | 0.00 | 0.00 | 56 | 1009.3 |
| 20260508034505 | 45 | 225 | 0.0 | 1.0 | 0.00 | 0.00 | 0.00 | 51 | 1009.3 |
| 20260508033002 | 45 | 225 | 0.0 | 1.0 | 0.00 | 0.00 | 0.00 | 52 | 1009.3 |
| 20260508031501 | 45 | 225 | 0.0 | 1.0 | 0.00 | 0.00 | 0.00 | 54 | 1009.3 |
| 20260508030100 | 45 | 225 | 0.0 | 1.0 | 0.00 | 0.00 | 0.00 | 53 | 1009.3 |
| 20260508030001 | 45 | 225 | 0.0 | 1.0 | 0.00 | 0.00 | 0.00 | 53 | 1009.3 |
| 20260508024604 | 46 | 225 | 0.0 | 1.0 | 0.00 | 0.00 | 0.00 | 49 | 1009.3 |
| 20260508023056 | 47 | 225 | 0.0 | 1.0 | 0.00 | 0.00 | 0.00 | 47 | 1009.2 |
| 20260508021552 | 47 | 225 | 0.0 | 2.0 | 0.00 | 0.00 | 0.00 | 47 | 1009.2 |
| 20260508020048 | 48 | 235 | 2.0 | 3.0 | 0.00 | 0.00 | 0.00 | 45 | 1009.0 |
| 20260508014544 | 49 | 219 | 2.0 | 3.0 | 0.00 | 0.00 | 0.00 | 43 | 1008.9 |
| 20260508013036 | 50 | 221 | 1.0 | 3.0 | 0.00 | 0.00 | 0.00 | 41 | 1008.8 |
| 20260508011532 | 53 | 292 | 0.0 | 1.0 | 0.00 | 0.00 | 0.00 | 39 | 1008.8 |
| 20260508010033 | 56 | 292 | 0.0 | 2.0 | 0.00 | 0.00 | 0.00 | 28 | 1008.7 |
| 20260508004529 | 57 | 348 | 0.0 | 2.0 | 0.00 | 0.00 | 0.00 | 26 | 1008.6 |
| 20260508003058 | 56 | 355 | 1.0 | 5.0 | 0.00 | 0.00 | 0.00 | 26 | 1008.8 |
| 20260508001556 | 57 | 308 | 1.0 | 7.0 | 0.00 | 0.00 | 0.00 | 26 | 1008.7 |
| 20260508000024 | 57 | 336 | 2.0 | 7.0 | 0.00 | 0.00 | 0.00 | 24 | 1009.0 |
| 20260507234534 | 57 | 20 | 4.0 | 10.0 | 0.00 | 0.00 | 0.00 | 24 | 1009.0 |
| 20260507233020 | 61 | 355 | 1.0 | 6.0 | 0.00 | 0.00 | 0.00 | 23 | 1009.0 |
| 20260507231519 | 58 | 326 | 3.0 | 9.0 | 0.00 | 0.00 | 0.00 | 25 | 1009.1 |
| 20260507230018 | 58 | 350 | 4.0 | 10.0 | 0.00 | 0.00 | 0.00 | 23 | 1009.0 |
| 20260507224522 | 58 | 313 | 5.0 | 12.0 | 0.00 | 0.00 | 0.00 | 23 | 1009.1 |
| 20260507223013 | 59 | 290 | 3.0 | 8.0 | 0.00 | 0.00 | 0.00 | 23 | 1009.2 |
| 20260507221513 | 58 | 322 | 4.0 | 12.0 | 0.00 | 0.00 | 0.00 | 23 | 1009.3 |
| 20260507220012 | 59 | 355 | 4.0 | 10.0 | 0.00 | 0.00 | 0.00 | 23 | 1009.3 |
| 20260507214521 | 62 | 335 | 2.0 | 6.0 | 0.00 | 0.00 | 0.00 | 21 | 1009.2 |
| 20260507213005 | 59 | 317 | 5.0 | 11.0 | 0.00 | 0.00 | 0.00 | 23 | 1009.4 |
| 20260507211506 | 58 | 351 | 4.0 | 12.0 | 0.00 | 0.00 | 0.00 | 23 | 1009.3 |
| 20260507210002 | 61 | 104 | 2.0 | 13.0 | 0.00 | 0.00 | 0.00 | 23 | 1009.1 |
| 20260507204559 | 58 | 323 | 6.0 | 16.0 | 0.00 | 0.00 | 0.00 | 23 | 1009.6 |
| 20260507203057 | 59 | 344 | 6.0 | 16.0 | 0.00 | 0.00 | 0.00 | 23 | 1009.7 |
| 20260507201603 | 58 | 85 | 3.0 | 11.0 | 0.00 | 0.00 | 0.00 | 29 | 1009.9 |
| 20260507200046 | 57 | 17 | 3.0 | 12.0 | 0.00 | 0.00 | 0.00 | 29 | 1010.1 |
| 20260507194545 | 57 | 87 | 3.0 | 12.0 | 0.00 | 0.00 | 0.00 | 29 | 1010.1 |
| 20260507193051 | 56 | 26 | 7.0 | 13.0 | 0.00 | 0.00 | 0.00 | 24 | 1010.2 |
| 20260507191540 | 56 | 35 | 2.0 | 18.0 | 0.00 | 0.00 | 0.00 | 26 | 1010.2 |
| 20260507190037 | 56 | 80 | 6.0 | 13.0 | 0.00 | 0.00 | 0.00 | 25 | 1010.4 |
| 20260507184535 | 56 | 111 | 9.0 | 17.0 | 0.00 | 0.00 | 0.00 | 28 | 1010.4 |
| 20260507183034 | 55 | 74 | 5.0 | 16.0 | 0.00 | 0.00 | 0.00 | 30 | 1010.4 |
| 20260507181526 | 55 | 83 | 10.0 | 18.0 | 0.00 | 0.00 | 0.00 | 28 | 1010.6 |
| 20260507180022 | 55 | 161 | 6.0 | 14.0 | 0.00 | 0.00 | 0.00 | 30 | 1010.8 |
| 20260507174517 | 54 | 77 | 7.0 | 16.0 | 0.00 | 0.00 | 0.00 | 30 | 1010.9 |
| 20260507173025 | 54 | 90 | 3.0 | 12.0 | 0.00 | 0.00 | 0.00 | 29 | 1011.2 |
| 20260507171503 | 54 | 56 | 5.0 | 14.0 | 0.00 | 0.00 | 0.00 | 31 | 1011.3 |
| 20260507170057 | 53 | 30 | 5.0 | 12.0 | 0.00 | 0.00 | 0.00 | 30 | 1011.3 |
| 20260507164552 | 51 | 165 | 5.0 | 14.0 | 0.00 | 0.00 | 0.00 | 31 | 1011.5 |
| 20260507163044 | 52 | 171 | 5.0 | 14.0 | 0.00 | 0.00 | 0.00 | 34 | 1011.6 |
| 20260507161533 | 52 | 88 | 6.0 | 14.0 | 0.00 | 0.00 | 0.00 | 35 | 1011.8 |
| 20260507160029 | 52 | 346 | 4.0 | 13.0 | 0.00 | 0.00 | 0.00 | 39 | 1011.8 |
| 20260507154528 | 51 | 47 | 4.0 | 13.0 | 0.00 | 0.00 | 0.00 | 42 | 1011.9 |
| 20260507153022 | 50 | 51 | 3.0 | 12.0 | 0.00 | 0.00 | 0.00 | 42 | 1011.9 |
| 20260507151517 | 48 | 88 | 4.0 | 10.0 | 0.00 | 0.00 | 0.00 | 43 | 1012.1 |
| 20260507150013 | 49 | 346 | 4.0 | 12.0 | 0.00 | 0.00 | 0.00 | 45 | 1012.2 |
| 20260507144511 | 48 | 67 | 4.0 | 12.0 | 0.00 | 0.00 | 0.00 | 46 | 1012.2 |
| 20260507143006 | 48 | 323 | 5.0 | 10.0 | 0.00 | 0.00 | 0.00 | 49 | 1012.5 |
| 20260507141623 | 46 | 320 | 3.0 | 8.0 | 0.00 | 0.00 | 0.00 | 52 | 1012.7 |
| 20260507140055 | 46 | 17 | 2.0 | 5.0 | 0.00 | 0.00 | 0.00 | 54 | 1012.8 |
| 20260507134552 | 47 | 355 | 1.0 | 3.0 | 0.00 | 0.00 | 0.00 | 50 | 1012.9 |
| 20260507133051 | 45 | 91 | 3.0 | 5.0 | 0.00 | 0.00 | 0.00 | 56 | 1012.8 |
| 20260507131548 | 42 | 65 | 2.0 | 5.0 | 0.00 | 0.00 | 0.00 | 56 | 1012.9 |
| 20260507130058 | 40 | 347 | 2.0 | 6.0 | 0.00 | 0.00 | 0.00 | 59 | 1013.1 |
| 20260507124548 | 43 | 224 | 0.0 | 2.0 | 0.00 | 0.00 | 0.00 | 59 | 1013.1 |
| 20260507123049 | 41 | 231 | 0.0 | 1.0 | 0.00 | 0.00 | 0.00 | 67 | 1013.2 |
| 20260507121546 | 37 | 206 | 1.0 | 3.0 | 0.00 | 0.00 | 0.00 | 72 | 1013.1 |
| 20260507120046 | 36 | 197 | 0.0 | 2.0 | 0.00 | 0.00 | 0.00 | 73 | 1013.1 |
| 20260507114542 | 34 | 197 | 0.0 | 1.0 | 0.00 | 0.00 | 0.00 | 74 | 1013.0 |
| 20260507113042 | 35 | 197 | 0.0 | 1.0 | 0.00 | 0.00 | 0.00 | 71 | 1012.9 |
| 20260507111544 | 34 | 197 | 0.0 | 1.0 | 0.00 | 0.00 | 0.00 | 75 | 1012.8 |
| 20260507110039 | 34 | 197 | 0.0 | 1.0 | 0.00 | 0.00 | 0.00 | 75 | 1012.8 |
| 20260507104537 | 35 | 197 | 0.0 | 1.0 | 0.00 | 0.00 | 0.00 | 70 | 1012.7 |
| 20260507103040 | 35 | 197 | 0.0 | 2.0 | 0.00 | 0.00 | 0.00 | 71 | 1012.7 |
| 20260507101543 | 36 | 197 | 0.0 | 2.0 | 0.00 | 0.00 | 0.00 | 66 | 1012.8 |
| 20260507100036 | 37 | 220 | 0.0 | 2.0 | 0.00 | 0.00 | 0.00 | 64 | 1012.7 |
| 20260507094540 | 38 | 244 | 0.0 | 1.0 | 0.00 | 0.00 | 0.00 | 66 | 1012.9 |
| 20260507093034 | 39 | 245 | 0.0 | 2.0 | 0.00 | 0.00 | 0.00 | 63 | 1013.0 |
| 20260507091628 | 38 | 225 | 2.0 | 5.0 | 0.00 | 0.00 | 0.00 | 64 | 1012.9 |
| 20260507090057 | 38 | 257 | 1.0 | 4.0 | 0.00 | 0.00 | 0.00 | 65 | 1012.9 |
| 20260507084556 | 38 | 171 | 2.0 | 4.0 | 0.00 | 0.00 | 0.00 | 65 | 1013.0 |
| 20260507083053 | 40 | 193 | 0.0 | 1.0 | 0.00 | 0.00 | 0.00 | 63 | 1013.1 |
| 20260507081552 | 39 | 197 | 0.0 | 2.0 | 0.00 | 0.00 | 0.00 | 65 | 1013.1 |
| 20260507080051 | 39 | 165 | 1.0 | 2.0 | 0.00 | 0.00 | 0.00 | 63 | 1013.1 |
| 20260507074552 | 40 | 217 | 1.0 | 3.0 | 0.00 | 0.00 | 0.00 | 62 | 1013.1 |